Location: Cruquius
(52.3348°N, 4.6319°E)
Time: 08:23:53
(UTC+00:00)

Cosmos 1937 Rocket - Pass Details

Date: 12 May 2021
Orbit: 745 x 781 km, 74.0° (Epoch: 20 June)

Event Time Altitude Azimuth Distance (km) Brightness Sun altitude
Exits shadow 23:11:21 17° 231° (SW) 1,844 5.2 -19.0°
Maximum altitude 23:15:11 50° 302° (WNW) 952 4.2 -19.1°
Drops below altitude 10° 23:20:15 10° 18° (NNE) 2,296 7.0 -19.2°
Sets 23:22:42 0° 24° (NNE) 3,230 7.8 -19.2°
